Flag for New Zealand Weather past 2 weeks in Wellington, New Zealand

Now
63 °F

Overcast.


Feels Like: 63 °F
Forecast: 62 / 64 °F
Wind: 26 mph from North

Location: Wellington Airport

Current Time: Apr 27, 2015 at 11:27:44 AM

Latest Report: Apr 27, 2015 at 11:00 AM


Visibility: N/A

Pressure: 29.53 "Hg

Humidity: 88%

Dew point: 59 °F

Location of WellingtonLocation

Historic Weather in Wellington — Graph

°F

Wellington temperature yesterday

Maximum temperature yesterday: 64 °F (at 3:30 PM)
Minimum temperature yesterday: 59 °F (at 4:30 AM)
Average temperature yesterday: 62 °F

Past Weeks' High & Low Weather Summary

 TemperatureHumidityPressure
High66 °F (Apr 20, 11:00 AM)100% (Apr 18, 3:30 AM)30.51 "Hg (Apr 18, 3:30 AM)
Low45 °F (Apr 15, 3:30 AM)47% (Apr 14, 11:00 PM)29.12 "Hg (Apr 13, 6:30 AM)
Average57 °F76%30.06 "Hg
* Reported Apr 12 10:00 AM — Apr 27 10:30 AM, Wellington, Weather by CustomWeather, © 2015

Note: Actual official high and low records may vary slightly from our data, if they occured in-between our weather recording intervals... More about our weather records

Advertising

Wellington weather history for previous 24 hours

 ConditionsComfort  
Time TempWeatherWind HumidityBarometerVisibility
10:30 AM
Mon, Apr 27
63 °FSprinkles. Partly sunny.25 mph88%29.56 "Hg3 mi
10:00 AM63 °FSprinkles. Partly sunny.29 mph88%29.56 "Hg2 mi
9:30 AM64 °FScattered showers. Partly sunny.25 mph78%29.56 "HgN/A
9:00 AM64 °FPartly sunny.28 mph73%29.56 "HgN/A
8:30 AM64 °FPartly sunny.22 mph73%29.59 "HgN/A
8:00 AM64 °FScattered showers. Overcast.22 mph73%29.59 "HgN/A
7:30 AM64 °FScattered showers. Overcast.25 mph73%29.59 "HgN/A
7:00 AM64 °FOvercast.23 mph73%29.59 "HgN/A
6:30 AM64 °FOvercast.24 mph73%29.59 "HgN/A
6:00 AM64 °FOvercast.25 mph73%29.62 "HgN/A
5:30 AM63 °FMostly cloudy.18 mph77%29.62 "HgN/A
5:00 AM63 °FPartly cloudy.23 mph77%29.65 "HgN/A
4:30 AM63 °FLight rain. Mostly cloudy.33 mph77%29.65 "Hg5 mi
4:00 AM63 °FOvercast.21 mph73%29.65 "HgN/A
3:30 AM63 °FPassing clouds.22 mph68%29.65 "HgN/A
3:00 AM63 °FOvercast.18 mph68%29.68 "HgN/A
2:30 AM63 °FOvercast.20 mph68%29.68 "HgN/A
2:00 AM63 °FPassing clouds.24 mph68%29.71 "HgN/A
1:30 AM63 °FMostly cloudy.24 mph68%29.74 "HgN/A
1:00 AM63 °FOvercast.20 mph68%29.74 "HgN/A
12:30 AM63 °FPassing clouds.20 mph68%29.77 "HgN/A
12:00 AM63 °FOvercast.15 mph73%29.80 "HgN/A
11:30 PM
Sun, Apr 26
63 °FPassing clouds.18 mph73%29.80 "HgN/A
11:00 PM63 °FOvercast.21 mph73%29.83 "HgN/A
10:30 PM63 °FOvercast.18 mph73%29.83 "HgN/A
10:00 PM64 °FOvercast.20 mph68%29.86 "HgN/A
9:30 PM64 °FOvercast.18 mph68%29.86 "HgN/A
9:00 PM64 °FOvercast.20 mph68%29.86 "HgN/A
8:30 PM64 °FOvercast.20 mph68%29.86 "HgN/A
8:00 PM64 °FOvercast.21 mph68%29.86 "HgN/A
7:30 PM64 °FMostly cloudy.23 mph68%29.86 "HgN/A
7:00 PM64 °FPassing clouds.23 mph68%29.89 "HgN/A
6:30 PM64 °FPassing clouds.24 mph68%29.89 "HgN/A
6:00 PM64 °FPassing clouds.23 mph68%29.89 "HgN/A
5:30 PM64 °FMostly cloudy.21 mph68%29.89 "HgN/A
5:00 PM64 °FPartly cloudy.21 mph68%29.89 "HgN/A
4:30 PM64 °FBroken clouds.22 mph68%29.89 "HgN/A
4:00 PM64 °FScattered clouds.25 mph68%29.89 "HgN/A
3:30 PM64 °FBroken clouds.25 mph68%29.89 "HgN/A
3:00 PM63 °FBroken clouds.23 mph73%29.92 "HgN/A
2:30 PM63 °FMostly cloudy.24 mph73%29.92 "HgN/A
2:00 PM63 °FCloudy.23 mph73%29.92 "HgN/A
1:30 PM63 °FBroken clouds.26 mph68%29.92 "HgN/A
1:00 PM63 °FPartly sunny.25 mph73%29.95 "HgN/A
12:30 PM63 °FPartly sunny.24 mph73%29.95 "HgN/A
12:00 PM63 °FPartly sunny.24 mph73%29.98 "HgN/A
11:30 AM61 °FMostly cloudy.24 mph77%30.01 "HgN/A
11:00 AM61 °FPartly sunny.23 mph72%30.01 "HgN/A
Weather by CustomWeather, © 2015

See weather overviewHow to use our weather pages